Regional Weather Roundup
Issued by NWS

Home | Current Version | Previous Version | Graphics & Text | Print | Product List | Glossary On
Versions: 1 2 3 4 5 6 7 8 9 10 11 12 13 14 15 16 17 18 19 20 21 22 23 24 25 26 27 28 29 30 31 32 33 34 35 36 37 38 39 40 41 42 43 44 45 46 47 48 49 50
979
ASUS43 KIND 270859
RWRIN

WEATHER ROUNDUP FOR INDIANA
NATIONAL WEATHER SERVICE INDIANAPOLIS IN
400 AM EST MON FEB 27 2017

NOTE: "FAIR" INDICATES FEW OR NO CLOUDS BELOW 12,000 FEET WITH NO
SIGNIFICANT WEATHER AND/OR OBSTRUCTIONS TO VISIBILITY.

* - STATION DOES NOT REPORT WEATHER SUCH AS PRECIPITATION OR FOG.

+ - STATION NOT QUALITY CONTROLLED BY THE NATIONAL WEATHER SERVICE.
    USE DATA WITH CAUTION...ESPECIALLY DEWPOINT AND RELATIVE
    HUMIDITY OBSERVATIONS.

INZ001>003-010>013-019-020-271000-
NORTHWEST INDIANA

CITY           SKY/WX    TMP DP  RH WIND       PRES   REMARKS
KNOX *+        CLEAR     30   5  34 SW5       30.14R WCI  25
RENSSELAER +     N/A     30  25  80 SW7       30.14S WCI  23

$$

LMZ046-743>745-271000-
SOUTHERN LAKE MICHIGAN

STATION/POSITION TIME  TEMP    WIND        PRES    WAVE
                       AIR SEA DIR/SP/G            HT
                 (UTC) (F)     (DEG/KT/KT) (MB)    (FT)
BURNS HARBOR     0840   38     210/ 12/ 18 1020.3R
MICHIGAN CITY    0830   37     200/ 15/ 17   N/A

$$

INZ004-005-014>016-021>024-271000-
NORTH CENTRAL INDIANA

CITY           SKY/WX    TMP DP  RH WIND       PRES   REMARKS
GOSHEN         CLOUDY    31  22  69 SW8       30.13S WCI  23
SOUTH BEND     CLEAR     31  22  69 SW8       30.13R WCI  23

$$

INZ006>009-017-018-025>027-271000-
NORTHEAST INDIANA

CITY           SKY/WX    TMP DP  RH WIND       PRES   REMARKS
ANGOLA *+      CLEAR     34  25  69 SW5       30.12S WCI  30
FORT WAYNE     CLOUDY    31  22  69 SW8       30.15S WCI  23
KENDALLVILLE + CLOUDY    33  24  69 SW7       30.13S WCI  26

$$

INZ028-029-035-036-043>045-051>053-271000-
WEST CENTRAL INDIANA

CITY           SKY/WX    TMP DP  RH WIND       PRES   REMARKS
LAFAYETTE      CLOUDY    33  24  69 CALM      30.15F
TERRE HAUTE    CLOUDY    39  33  79 E5        30.16S

$$

INZ030>032-037>040-046>048-054>057-064-065-271000-
CENTRAL INDIANA

CITY           SKY/WX    TMP DP  RH WIND       PRES   REMARKS
GREENWOOD *+   CLOUDY    43  31  62 CALM      30.17S
INDIANAPOLIS   CLOUDY    40  33  76 W3        30.16F
-EAGLE CREEK   CLOUDY    41  32  70 W5        30.15F
KOKOMO +       MOCLDY    36  25  64 SW7       30.17R
MT COMFORT *+  CLOUDY    39  30  70 W7        30.17F
SHELBYVILLE    CLOUDY    43  30  60 S3        30.17S

$$

INZ033-034-041-042-049-050-058-059-271000-
EAST CENTRAL INDIANA

CITY           SKY/WX    TMP DP  RH WIND       PRES   REMARKS
MUNCIE         CLOUDY    42  23  46 SW3       30.17R

$$

INZ060-061-067>069-081>083-085>088-271000-
SOUTHWEST INDIANA

CITY           SKY/WX    TMP DP  RH WIND       PRES   REMARKS
EVANSVILLE     LGT RAIN  45  31  58 S5        30.18S
HUNTINGBURG *+ CLOUDY    43  28  56 S6        30.19S

$$

INZ062-063-066-070>080-084-089>092-271000-
SOUTH CENTRAL AND SOUTHEAST INDIANA

CITY           SKY/WX    TMP DP  RH WIND       PRES   REMARKS
BLOOMINGTON    CLOUDY    41  32  70 CALM      30.16S
MADISON *+     CLOUDY    43  23  45 S3        30.22R
SEYMOUR +      CLOUDY    41  28  60 SE3       30.19S

$$





USA.gov is the U.S. government's official web portal to all federal, state and local government web resources and services.